Vorticity
nan nan nan nan nan nan nan nan nan nan nan nan nan nan nan nan nan nan nan nan nan nan nan nan nan nan nan nan nan nan nan nan nan nan nan nan nan nan nan nan nan nan nan
nan 9 6 8 8 8 8 8 7 6 6 7 8 7 7 6 7 7 9 8 7 6 6 5 4 3 3 4 4 5 5 5 4 5 5 4 4 4 4 4 4 4 nan
nan 8 6 6 10 11 8 6 8 6 7 7 8 6 6 6 7 7 6 7 7 7 7 6 6 4 4 4 4 4 4 5 5 5 6 5 4 4 3 4 4 4 nan
nan 5 7 6 8 9 10 9 7 7 7 7 7 7 6 7 6 6 5 6 7 6 9 11 7 6 5 4 4 4 4 4 5 5 5 5 5 4 4 4 4 4 nan
nan 6 5 9 8 6 7 9 9 7 6 8 7 6 7 8 7 6 6 6 5 6 10 9 6 7 7 5 4 4 5 5 4 5 4 5 5 4 4 4 5 4 nan
nan 8 8 7 7 7 7 9 8 6 8 8 8 7 7 7 7 8 7 7 7 6 5 8 9 8 10 8 6 5 4 5 5 5 5 5 5 4 4 4 5 5 nan
nan 5 9 10 6 8 9 7 7 7 8 8 7 7 8 9 7 7 8 9 9 9 8 4 6 8 12 11 8 7 6 6 6 5 6 5 5 5 4 3 4 5 nan
nan 11 9 7 6 5 6 9 7 5 7 8 6 7 10 9 12 9 7 9 6 9 11 8 7 6 6 13 15 11 8 8 8 9 8 7 6 5 4 5 4 4 nan
nan 5 7 5 8 7 6 7 7 5 3 7 7 4 7 9 12 14 9 9 10 7 9 12 10 7 5 6 12 15 10 8 9 8 9 12 11 8 6 6 5 4 nan
nan 6 7 5 6 7 7 6 5 6 7 6 7 7 3 9 7 9 9 10 12 8 7 11 10 9 7 9 6 8 11 8 8 8 8 7 7 9 12 14 10 8 nan
nan 7 6 10 4 6 8 8 8 7 6 6 7 9 7 6 7 5 7 9 8 12 8 9 8 11 9 5 9 12 8 6 8 10 10 11 11 10 11 11 15 15 nan
nan 8 5 8 8 7 8 8 9 7 6 6 7 6 6 6 8 7 8 8 8 9 10 11 12 12 11 10 11 11 10 10 10 10 10 10 10 10 11 12 13 12 nan
nan 7 6 5 6 7 7 7 8 9 8 8 5 5 6 5 7 8 10 14 12 8 10 9 11 10 10 10 15 13 10 10 11 9 8 8 8 9 10 10 10 11 nan
nan 7 7 7 6 6 6 6 7 9 9 10 9 6 7 10 11 10 10 7 8 11 8 10 12 10 10 9 13 11 7 10 7 8 7 7 7 8 9 9 9 9 nan
nan 11 9 7 7 8 7 5 7 8 7 8 11 9 8 9 10 11 10 8 8 10 10 8 9 11 8 10 10 6 7 7 3 5 6 7 7 7 7 8 8 9 nan
nan 8 8 8 7 6 7 6 6 7 6 8 11 12 8 10 9 10 10 8 8 6 9 13 11 12 9 5 7 8 9 5 8 5 5 6 7 8 8 8 8 8 nan
nan 7 6 6 6 7 7 7 7 10 10 10 8 10 9 10 9 9 10 10 9 8 6 10 14 10 11 9 5 7 8 7 11 11 5 4 6 7 8 9 9 9 nan
nan 7 7 7 7 7 7 8 9 11 11 7 8 11 8 9 10 8 10 11 9 10 11 9 9 8 6 7 9 10 7 8 9 9 5 5 6 9 8 9 7 8 nan
nan 8 8 9 8 8 9 11 12 8 6 6 10 13 12 9 6 9 11 11 8 9 11 10 7 8 11 12 11 9 8 9 10 9 9 9 8 6 6 7 8 7 nan
nan 9 10 9 10 11 13 12 9 6 8 12 13 13 12 9 9 10 10 10 10 8 11 11 7 9 9 8 8 11 11 8 7 8 13 10 11 14 13 10 9 9 nan
nan 9 9 10 10 10 12 12 12 10 12 12 12 12 14 15 15 12 11 12 10 9 11 9 8 8 9 10 8 8 9 8 10 12 10 9 9 10 16 15 15 9 nan
nan 9 9 9 6 8 16 13 8 9 13 12 11 11 16 16 15 15 16 17 15 14 9 8 9 8 9 8 9 8 8 8 11 12 6 6 9 9 9 9 11 11 nan
nan 10 10 10 9 10 14 13 7 8 14 14 11 8 9 13 12 9 10 8 7 12 17 15 12 11 10 9 9 9 8 8 7 4 8 10 10 9 9 12 10 7 nan
nan 10 13 11 11 17 16 16 11 10 14 16 13 11 10 11 11 10 6 5 6 7 10 13 15 14 13 12 9 7 9 10 11 11 10 10 9 10 10 9 11 13 nan
nan 14 17 19 15 16 16 15 12 11 12 11 13 15 13 14 15 8 5 7 7 5 6 8 9 9 11 10 10 12 13 10 10 11 14 13 9 8 11 14 18 16 nan
nan nan nan nan nan nan nan nan nan nan nan nan nan nan nan nan nan nan nan nan nan nan nan nan nan nan nan nan nan nan nan nan nan nan nan nan nan nan nan nan nan nan nan
CAPE
54 65 181 217 130 89 37 6 7 0 0 0 0 0 0 0 0 11 12 21 25 21 15 11 6 3 1 0 0 0 0 1 0 0 0 0 0 0 0 0 0 0 0
49 33 18 26 114 190 89 42 24 0 0 0 0 0 0 0 3 8 7 15 18 20 19 11 7 4 1 0 0 0 0 0 0 0 0 0 0 0 0 0 0 0 0
45 4 4 5 13 66 41 32 7 0 0 0 0 0 0 0 2 6 6 6 4 9 18 19 8 4 1 0 0 0 0 0 0 0 0 0 0 0 0 0 0 0 0
26 16 0 0 0 2 7 6 4 0 0 0 0 0 0 0 0 1 4 5 4 1 5 22 22 15 2 0 0 0 0 0 0 0 0 0 0 0 0 0 0 0 0
18 27 14 9 0 0 0 0 0 0 0 0 0 0 0 0 0 0 0 0 2 3 9 5 19 22 32 11 5 0 0 0 0 0 0 0 0 0 0 0 0 0 0
78 43 2 2 0 0 0 0 0 0 0 0 0 0 0 0 0 0 0 0 0 1 3 17 12 18 15 52 27 31 19 2 0 0 0 0 0 0 0 0 0 0 0
17 39 56 24 3 0 0 0 0 0 0 0 0 0 0 0 0 0 0 0 0 0 3 8 15 14 6 33 76 36 15 24 21 2 0 0 0 0 0 0 0 0 0
0 12 36 54 47 52 3 6 1 2 26 0 0 10 18 2 0 0 0 0 0 0 0 0 0 0 5 33 36 68 34 5 8 37 25 11 8 4 1 1 0 0 0
1 0 17 44 22 61 45 55 15 11 62 11 0 53 26 37 4 0 0 0 0 0 0 0 0 0 0 0 0 17 8 15 27 27 39 97 79 46 45 26 15 9 2
1 17 20 95 91 86 115 152 93 145 166 129 8 1 60 24 28 159 0 0 0 0 0 0 0 0 0 0 0 2 0 0 0 1 1 2 6 10 39 71 82 57 29
30 0 35 45 82 195 177 234 203 165 194 225 186 148 38 0 0 1 144 122 0 0 0 0 0 0 0 0 0 0 0 0 0 0 0 0 0 0 0 4 38 65 91
0 10 14 106 126 256 233 329 382 336 296 230 292 157 71 28 103 128 138 175 83 0 0 0 0 0 0 0 0 0 0 0 0 0 0 0 0 0 0 0 0 10 33
0 0 5 31 136 219 323 315 407 425 303 280 279 246 170 179 251 282 152 0 0 0 0 0 4 0 0 0 0 0 0 0 0 0 0 0 0 0 0 0 0 0 0
5 0 3 22 99 167 258 228 401 361 355 339 300 285 260 308 272 174 2 0 2 1 0 0 0 0 0 0 0 0 0 0 0 0 0 0 0 0 0 0 0 0 0
24 30 115 116 196 187 138 147 191 240 257 298 332 411 422 222 324 146 2 0 0 0 0 0 2 0 0 0 0 0 0 0 0 0 0 0 0 0 0 0 0 0 0
53 91 87 153 138 73 102 106 136 149 175 401 414 179 171 136 31 0 3 6 0 0 1 19 0 0 0 0 0 0 0 0 0 0 0 0 0 0 0 0 0 0 0
24 23 32 43 35 38 60 136 122 131 156 223 127 126 15 0 1 4 3 3 2 3 2 0 0 1 0 1 0 0 1 1 0 0 0 0 0 0 0 0 0 0 0
38 6 10 3 16 16 60 115 99 75 73 69 51 0 3 0 1 3 3 5 0 0 0 0 0 0 0 0 0 1 0 0 0 0 0 0 0 0 0 0 0 0 0
26 22 26 88 63 76 60 85 84 17 17 13 4 0 0 0 1 1 0 2 0 0 0 1 0 0 0 0 0 0 0 0 0 0 0 0 0 0 0 0 0 0 0
1 5 23 34 52 18 4 19 58 81 72 7 3 1 1 0 0 2 0 0 0 0 0 0 0 0 0 0 0 0 0 0 0 0 0 0 0 0 0 0 0 0 0
1 0 3 8 36 21 15 6 15 12 7 3 2 0 0 0 0 0 0 0 0 0 0 0 0 0 0 0 0 0 0 0 0 0 0 0 0 0 0 0 0 0 0
1 3 6 16 54 2 0 0 0 8 1 0 1 0 0 0 0 0 0 0 0 0 0 0 0 0 0 0 0 0 0 0 0 0 0 0 0 0 0 0 0 0 0
5 6 30 6 2 12 0 1 1 5 2 1 0 0 0 0 0 0 0 0 0 0 0 0 0 0 0 0 0 0 0 0 0 0 0 0 0 0 0 0 0 0 0
15 45 12 18 19 8 0 1 1 0 0 0 0 1 0 0 0 0 0 0 0 0 0 0 0 0 0 0 0 0 0 0 0 0 0 0 0 0 0 0 0 0 0
90 55 18 7 0 0 1 1 0 0 0 0 1 0 0 0 0 0 0 0 0 0 0 0 0 0 0 0 0 0 0 0 0 0 0 0 0 0 0 0 0 0 0
0 1 0 0 1 0 0 0 0 0 0 1 1 1 0 0 0 0 0 0 0 0 0 0 0 0 0 0 0 0 0 0 0 0 0 0 0 0 0 0 2 3 22